User: anonymous   Login
Location: Bodest
(46.3000°N, 22.5667°E)
Time: 11:27:33
(UTC+00:00)
Language:

FENGYUN 1C DEB - Orbit

View from above orbital plane
View from above orbital plane
View from above satellite
View from above satellite

Ground track
Ground track

The orbit data is extracted from the following two-line orbital elements,

1 30822U 99025AVG 23091.87013773  .00000963  00000-0  56234-3 0  9992
2 30822  98.8428 131.0318 0076104 193.2737 340.5346 14.09344012828059
Epoch (UTC): 01 April 2023 20:52:59
Eccentricity: 0.0076104
inclination: 98.8428°
perigee height: 806 km
apogee height: 917 km
right ascension of ascending node: 131.0318°
argument of perigee: 193.2737°
revolutions per day: 14.09344012
mean anomaly at epoch: 340.5346°
orbit number at epoch: 82805

The dashed part of the orbit path shows where the satellite is in the earth's shadow,  

DLR